Regional Weather Roundup
Issued by NWS Mt. Holly, NJ

Home | Current Version | Previous Version | Text Only | Print | Product List | Glossary On
Versions: 1 2 3 4 5 6 7 8 9 10 11 12 13 14 15 16 17 18 19 20 21 22 23 24 25 26 27
000
ASUS41 KPHI 051212
RWRPHI

REGIONAL WEATHER ROUNDUP
NATIONAL WEATHER SERVICE MOUNT HOLLY NJ
800 AM EDT THU MAY 05 2016

NOTE:  "FAIR" INDICATES FEW OR NO CLOUDS BELOW 12,000 FEET WITH NO
SIGNIFICANT WEATHER AND/OR OBSTRUCTIONS TO VISIBILITY.

 * = STATION DOES NOT REPORT PRECIPITATION (E.G. RAIN, SNOW, ETC.)
        OR FOG.

NJZ015>026-051300-
SOUTHERN NEW JERSEY

CITY           SKY/WX    TMP DP  RH WIND       PRES   REMARKS
POMONA         CLOUDY    47  45  93 NE12G20   29.66S
6HR MIN TEMP:  47; 6HR MAX TEMP:  48;

WILDWOOD*      CLOUDY   N/A N/A N/A NE12      29.66S
MILLVILLE      CLOUDY    48  44  86 NE13      29.67S
WRIGHTSTOWN    CLOUDY    46  45  93 N10       29.66S
MOUNT HOLLY    CLOUDY    47  45  93 VRB7      29.68S
TRENTON        CLOUDY    48  44  86 NE8       29.69R
6HR MIN TEMP:  47; 6HR MAX TEMP:  48;


$$
NJZ001>014-051300-
NORTHERN NEW JERSEY

CITY           SKY/WX    TMP DP  RH WIND       PRES   REMARKS
SUSSEX         CLOUDY    46  42  86 NE8       29.73R FOG
ANDOVER*         N/A     46  43  89 VRB6      29.72R
MORRISTOWN     CLOUDY    46  45  93 NE7       29.72R
NEWARK         CLOUDY    48  45  89 N15       29.71R
TETERBORO      CLOUDY    48  42  80 NE5       29.70S
CALDWELL       CLOUDY    48  31  51 VRB6G17   29.71S
SOMERVILLE     CLOUDY    49  44  83 VRB5      29.69S
ALLAIRE*       CLOUDY    46  43  89 N12G17    29.70R
TOMS RIVER*    CLOUDY    46  43  87 NE13      29.69R

$$
PAZ043-044-047-054-055-060>062-066>071-051300-
EASTERN PENNSYLVANIA

CITY           SKY/WX    TMP DP  RH WIND       PRES   REMARKS
PHILADELPHIA   CLOUDY    50  43  77 NE12      29.69S
6HR MIN TEMP:  50; 6HR MAX TEMP:  50; 6HR PCP: TRACE;

NORTH PHILA    CLOUDY    49  45  86 NE16      29.70S
BLUE BELL*     CLOUDY    46  43  87 NE3       29.69S
DOYLESTOWN     CLOUDY    46  42  86 NE6       29.69S
QUAKERTOWN*    CLOUDY    46  45  93 NE9       29.71S
PERKASIE*      CLOUDY    46  45  93 NE10      29.71R
POTTSTOWN      CLOUDY    48  44  86 NE6       29.70F
LANCASTER      CLOUDY    48  45  89 NE9       29.68R
COATESVILLE    CLOUDY    46  46 100 N5        29.68F
READING        CLOUDY    49  43  80 VRB6      29.69R
6HR MIN TEMP:  48; 6HR MAX TEMP:  50; 6HR PCP: TRACE;

ALLENTOWN      CLOUDY    49  42  77 NE10      29.71R
6HR MIN TEMP:  47; 6HR MAX TEMP:  49;

MOUNT POCONO   CLOUDY    40  39  97 NE8       29.70R WCI  34
6HR MIN TEMP:  39; 6HR MAX TEMP:  40;

HAZLETON       CLOUDY    45  43  93 NE5       29.73R
LEHIGHTON      CLOUDY    50  43  76 E5        29.71R
WILKES BARRE   CLOUDY    47  42  83 NE7       29.72R

$$
DEZALL-MDZ008-012-015-019-020-051300-
DELAWARE AND EASTERN MARYLAND

CITY           SKY/WX    TMP DP  RH WIND       PRES   REMARKS
WILMINGTON     CLOUDY    49  44  83 NE10      29.68S
6HR MIN TEMP:  49; 6HR MAX TEMP:  50;

DOVER          CLOUDY    49  49 100 NE12      29.66S
GEORGETOWN     CLOUDY    49  46  90 NE9       29.65S
6HR MIN TEMP:  49; 6HR MAX TEMP:  50;

EASTON         CLOUDY   N/A N/A N/A NE8       29.69F
ABERDEEN       CLOUDY    50  48  93 N12       29.69R FOG
PATUXENT       CLOUDY    50  47  89 NE10      29.65R
OCEAN CITY     CLOUDY    49  46  90 NE14G24   29.65R
WALLOPS ISLAND CLOUDY    50  47  89 NE18      29.63S
CAMBRIDGE      CLOUDY    48  45  87 NE8       29.65R
SALISBURY      CLOUDY    49  46  90 NE13      29.65R

$$
PAZ001-021-NYZ056-072-MDZ011-DCZ001-051300-
OTHER NEARBY LOCATIONS

CITY           SKY/WX    TMP DP  RH WIND       PRES   REMARKS
HARRISBURG     CLOUDY    50  45  83 NE6       29.69R
STATE COLLEGE  CLOUDY    48  46  93 NE9       29.70R
WILLIAMSPORT   CLOUDY    51  45  79 CALM      29.69F
BINGHAMTON     CLOUDY    44  40  85 NE8       29.73S
NEW YORK CITY  CLOUDY    48  41  76 NE12      29.73R
BALTIMORE      DRZL/FOG  50  48  93 NE7       29.66F VSB 1
WASHINGTON DC  DRIZZLE   51  49  92 NE9       29.67S FOG

$$




USA.gov is the U.S. government's official web portal to all federal, state and local government web resources and services.